Home > Weather > Budapest > Past weeks

Flag for Hungary Weather for the Past 2 Weeks in Budapest, Hungary

Now
46 °F

Passing clouds.


Feels Like: 42 °F
Forecast: 32 / 48 °F
Wind: 8 mph from Southeast

Location: Ferenc Liszt International Airport

Current Time: Feb 6, 2016 at 3:07:05 PM

Latest Report: Feb 6, 2016 at 2:30 PM


Visibility: N/A

Pressure: 30.30 "Hg

Humidity: 66%

Dew point: 36 °F

Location of BudapestLocation

Historic Weather in Budapest — Graph

°F

Budapest Temperature Yesterday

Maximum temperature yesterday: 46 °F (at 1:30 PM)
Minimum temperature yesterday: 25 °F (at 10:00 PM)
Average temperature yesterday: 36 °F

High & Low Weather Summary for the Past Weeks

 TemperatureHumidityPressure
High55 °F (Feb 2, 12:00 PM)100% (Jan 24, 11:00 AM)30.63 "Hg (Jan 24, 11:00 AM)
Low7 °F (Jan 23, 7:30 AM)42% (Feb 5, 2:30 PM)29.86 "Hg (Jan 31, 3:00 AM)
Average36 °F90%30.26 "Hg
* Reported Jan 22 2:00 PM — Feb 6 2:00 PM, Budapest, Weather by CustomWeather, © 2016

Note: Actual official high and low records may vary slightly from our data, if they occured in-between our weather recording intervals... More about our weather records

Advertising

Budapest Weather History for the Previous 24 Hours

 ConditionsComfort  
Time TempWeatherWind HumidityBarometerVisibility
2:00 PM
Sat, Feb 6
46 °FPassing clouds.6 mph66%30.30 "HgN/A
1:30 PM45 °FPassing clouds.6 mph71%30.30 "HgN/A
1:00 PM45 °FSunny.7 mph71%30.33 "Hg10 mi
12:30 PM45 °FPassing clouds.6 mph76%30.33 "HgN/A
12:00 PM43 °FPassing clouds.6 mph81%30.36 "HgN/A
11:30 AM39 °FPassing clouds.5 mph87%30.36 "HgN/A
11:00 AM39 °FPassing clouds.5 mph87%30.36 "HgN/A
10:30 AM37 °FSunny.5 mph87%30.36 "Hg10 mi
10:00 AM37 °FPassing clouds.6 mph93%30.36 "HgN/A
9:30 AM36 °FPassing clouds.5 mph93%30.36 "HgN/A
9:00 AM34 °FPassing clouds.6 mph100%30.36 "HgN/A
8:30 AM30 °FScattered clouds.3 mph100%30.39 "HgN/A
8:00 AM28 °FScattered clouds.3 mph100%30.36 "HgN/A
7:30 AM28 °FPartly sunny.3 mph100%30.36 "HgN/A
7:02 AM27 °FMostly cloudy.3 mph100%30.36 "HgN/A
7:01 AM27 °FPassing clouds.3 mph100%30.36 "HgN/A
6:30 AM28 °FClear.6 mph100%30.36 "Hg10 mi
6:00 AM27 °FClear.7 mph100%30.36 "Hg10 mi
5:00 AM28 °FClear.5 mph100%30.36 "Hg10 mi
4:30 AM28 °FClear.3 mph100%30.36 "Hg10 mi
4:00 AM28 °FClear.3 mph100%30.36 "Hg10 mi
3:00 AM28 °FPassing clouds.3 mph100%30.36 "HgN/A
2:00 AM30 °FClear.3 mph100%30.39 "Hg10 mi
1:30 AM28 °FPartly cloudy.5 mph100%30.39 "HgN/A
1:00 AM28 °FClear.No wind100%30.39 "Hg10 mi
12:30 AM27 °FClear.2 mph100%30.39 "Hg10 mi
12:00 AM25 °FClear.No wind93%30.39 "Hg10 mi
11:30 PM
Fri, Feb 5
27 °FClear.2 mph86%30.36 "Hg10 mi
11:00 PM28 °FClear.No wind80%30.39 "Hg10 mi
10:30 PM25 °FClear.1 mph86%30.39 "Hg10 mi
10:00 PM25 °FClear.2 mph86%30.39 "Hg10 mi
9:30 PM28 °FClear.1 mph80%30.36 "Hg10 mi
9:00 PM32 °FClear.3 mph75%30.36 "Hg10 mi
8:30 PM28 °FClear.2 mph74%30.36 "Hg10 mi
8:00 PM36 °FClear.6 mph60%30.36 "Hg10 mi
7:30 PM32 °FClear.3 mph69%30.36 "Hg10 mi
7:00 PM32 °FClear.10 mph69%30.36 "Hg10 mi
6:30 PM34 °FClear.9 mph65%30.36 "Hg10 mi
6:00 PM34 °FClear.10 mph65%30.33 "Hg10 mi
5:30 PM37 °FClear.12 mph56%30.33 "Hg10 mi
5:00 PM39 °FClear.13 mph56%30.33 "Hg10 mi
4:30 PM41 °FSunny.12 mph49%30.30 "Hg10 mi
4:00 PM43 °FSunny.12 mph46%30.30 "Hg10 mi
3:30 PM45 °FSunny.12 mph42%30.30 "Hg10 mi
3:00 PM45 °FSunny.12 mph42%30.27 "Hg10 mi
Weather by CustomWeather, © 2016

See weather overviewHow to use our weather pages